Overview Statistics Trail Chart Weather Telemetry Raw packets
 

This is the latest recevied weather packets stored in our database for station/object W5GMO. If no packets are shown the sender has not sent any weather packets the latest 10 day(s).

<< 11 12 13 14 15 16 17 >>
Time Temp. Humidity Pressure Rain* Wind** Luminosity Snow
1788561729 27.78° C 1% 1011.7 hPa 0 mm - 37 W/m² -
1788561428 27.78° C 1% 1012 hPa 0 mm - 42 W/m² -
1788561123 27.78° C 1% 1012.1 hPa 0 mm - 48 W/m² -
1788560818 27.78° C 1% 1012.1 hPa 0 mm - 53 W/m² -
1788560514 27.78° C 1% 1011.9 hPa 0 mm - 57 W/m² -
1788560213 27.78° C 1% 1011.9 hPa 0 mm - 60 W/m² -
1788559909 27.78° C 1% 1012.3 hPa 0 mm - 61 W/m² -
1788559603 27.78° C 1% 1012 hPa 0 mm - 60 W/m² -
1788559298 27.78° C 1% 1012.1 hPa 0 mm - 62 W/m² -
1788558993 27.78° C 1% 1012.3 hPa 0 mm - 64 W/m² -
1788558690 27.78° C 1% 1012.2 hPa 0 mm - 57 W/m² -
1788558389 27.78° C 1% 1012.6 hPa 0 mm - 42 W/m² -
1788558085 27.78° C 1% 1012.6 hPa 0 mm - 29 W/m² -
1788557782 27.78° C 1% 1012.3 hPa 0 mm - 21 W/m² -
1788557480 28.33° C 1% 1012.5 hPa 0 mm - 16 W/m² -
1788557179 27.78° C 1% 1012.7 hPa 0 mm - 14 W/m² -
1788556875 27.78° C 1% 1012.6 hPa 0 mm - 14 W/m² -
1788556575 27.78° C 1% 1012.6 hPa 0 mm - 14 W/m² -
1788556270 28.33° C 1% 1012.6 hPa 0 mm - 14 W/m² -
1788555969 28.89° C 1% 1012.8 hPa 1.78 mm - 13 W/m² -
1788555665 29.44° C 1% 1012.9 hPa 3.05 mm - 13 W/m² -
1788555360 30° C 1% 1012.8 hPa 1.27 mm - 13 W/m² -
1788555056 30.56° C 1% 1012.6 hPa 0 mm - 14 W/m² -
1788554752 31.11° C 1% 1012.9 hPa 0 mm - 16 W/m² -
1788554448 31.11° C 1% 1013.1 hPa 0 mm - 16 W/m² -

* Rain latest hour (hover to see other rain measurements)
** Current wind speed in m/s (hover to see current wind gust speed)